• Join FlightAware (Why Join?)
  • Login
  • US Flag 
01:27PM EDT


 

Airport Tracker/Info


-or-


 

Live Flight TrackerFlight Track Log ✈ SWA1017 ✈ 22-Apr-2013 ✈ KAUS - KDAL

Flight Track Log - Related Links

Times and Time Zones

All times are in EDT time to prevent confusion due to time zone crossing. See the SWA1017 flight status page for this flight to view local times or setup timezone preferences in your user account.

Time Position Orientation Groundspeed Altitude Reporting Facility
EDT Latitude Longitude Course Direction KTS MPH feet Rate Location/Type
04:52PM 30.1517 -97.6542 121° Southeast 159 183 22,000  Level Houston Center
04:53PM 30.1272 -97.6067 121° Southeast 206 237 5,700 -6,540 Descending Houston Center
04:54PM 30.1278 -97.5317 89° East 232 267 8,500 2,760 Climbing Houston Center
04:55PM 30.2200 -97.4806 26° Northeast 303 349 11,500 3,180 Climbing Houston Center
04:56PM 30.3100 -97.4322 25° Northeast 346 398 15,200 3,180 Climbing Houston Center
04:57PM 30.4028 -97.3867 23° Northeast 358 412 18,100 3,060 Climbing Houston Center
04:58PM 30.4989 -97.3358 24° Northeast 374 430 21,600 1,860 Climbing Houston Center
04:59PM 30.5942 -97.2747 29° Northeast 394 453 22,000 180 Climbing Houston Center
05:00PM 30.6736 -97.1792 46° Northeast 412 474 22,000  Level Houston Center
05:01PM 30.7708 -97.0636 46° Northeast 416 479 22,000  Level Houston Center
05:02PM 30.8514 -96.9667 46° Northeast 416 479 22,000  Level Houston Center
05:03PM 30.9322 -96.8686 46° Northeast 418 481 22,000  Level Houston Center
05:04PM 31.0142 -96.7706 46° Northeast 422 486 22,000  Level Houston Center
05:05PM 31.1033 -96.6631 46° Northeast 419 482 22,000  Level Houston Center
05:07PM 31.1831 -96.5664 46° Northeast 415 478 22,000  Level Houston Center
05:08PM 31.2631 -96.4681 46° Northeast 415 478 22,000  Level Houston Center
05:09PM 31.3428 -96.3719 46° Northeast 411 473 22,000  Level Houston Center
05:09PM 31.3925 -96.3281 37° Northeast 403 464 22,000  Level Fort Worth Center
05:10PM 31.4967 -96.3047 11° North 374 430 22,000  Level Fort Worth Center
05:11PM 31.5800 -96.2942 North 368 423 22,000  Level Fort Worth Center
05:12PM 31.7072 -96.2753 North 373 429 22,000 -60 Level Fort Worth Center
05:13PM 31.8114 -96.2619 North 373 429 21,900 -1,140 Descending Fort Worth Center
05:14PM 31.9136 -96.2508 North 373 429 19,800 -2,220 Descending Fort Worth Center
05:15PM 32.0158 -96.2397 North 367 422 17,500 -2,100 Descending Fort Worth Center
05:16PM 32.1056 -96.2264 North 367 422 15,700 -1,980 Descending Fort Worth Center
05:17PM 32.1972 -96.2275 359° North 348 400 13,600 -2,280 Descending Fort Worth Center
05:18PM 32.2875 -96.2806 334° Northwest 318 366 11,200 -1,740 Descending Fort Worth Center
05:19PM 32.3672 -96.3286 333° Northwest 318 366 10,200 -1,140 Descending Fort Worth Center
05:20PM 32.4450 -96.3744 334° Northwest 323 372 9,000 -960 Descending Fort Worth Center
05:21PM 32.5164 -96.4181 333° Northwest 304 350 8,300 -840 Descending Fort Worth Center
05:22PM 32.5814 -96.4569 333° Northwest 288 331 7,400 -1,020 Descending Fort Worth Center
05:23PM 32.6611 -96.5053 333° Northwest 288 331 6,300 -1,080 Descending Fort Worth Center
05:24PM 32.7197 -96.5542 325° Northwest 288 331 5,300 -660 Descending Fort Worth Center
05:25PM 32.7911 -96.6153 324° Northwest 293 337 5,000 -180 Descending Fort Worth Center
05:26PM 32.8478 -96.6617 325° Northwest 283 326 5,000 -300 Level Fort Worth Center
05:27PM 32.9000 -96.7000 328° Northwest 243 280 4,500 -900 Descending Dallas / Fort Worth TRACON
05:28PM 32.9500 -96.7500 320° Northwest 244 281 3,500 -780 Descending Dallas / Fort Worth TRACON
05:29PM 32.9833 -96.8167 301° West 208 239 3,000 -300 Descending Dallas / Fort Worth TRACON
05:30PM 32.9667 -96.8667 248° West 182 209 3,000 -420 Level Dallas / Fort Worth TRACON
05:31PM 32.9333 -96.9000 220° Southwest 155 178 2,200 -720 Descending Dallas / Fort Worth TRACON
05:32PM 32.9000 -96.9000 180° South 143 165 1,600 -660 Descending Dallas / Fort Worth TRACON
05:33PM 32.8667 -96.8667 140° Southeast 132 152 900 -720 Descending Dallas / Fort Worth TRACON
05:35PM 32.8471 -96.8518 216° Southwest  Level Estimated
05:42PM 32.8471 -96.8518 216° Southwest  Level Estimated